This is the latest recevied weather packets stored in our database for station/object WD9U. If no packets are shown the sender has not sent any weather packets the latest 10 day(s).
| Time | Temp. | Humidity | Pressure | Rain* | Wind** | Luminosity | Snow |
|---|---|---|---|---|---|---|---|
| 1777667837 | 8.89° C | 33% | 1019.9 hPa | 0 mm | - | 692 W/m² | - |
| 1777667477 | 9.44° C | 34% | 1019.9 hPa | 0 mm | - | 702 W/m² | - |
| 1777667117 | 8.89° C | 33% | 1019.9 hPa | 0 mm | - | 712 W/m² | - |
| 1777666757 | 9.44° C | 35% | 1019.9 hPa | 0 mm | - | 724 W/m² | - |
| 1777666397 | 8.33° C | 34% | 1020 hPa | 0 mm | - | 734 W/m² | - |
| 1777666037 | 8.89° C | 34% | 1020 hPa | 0 mm | - | 744 W/m² | - |
| 1777665919 | 8.89° C | 34% | 1020 hPa | 0 mm | - | 747 W/m² | - |
| 1777665677 | 8.89° C | 34% | 1020 hPa | 0 mm | - | 753 W/m² | - |
| 1777665317 | 8.89° C | 34% | 1020 hPa | 0 mm | - | 764 W/m² | - |
| 1777664957 | 8.33° C | 37% | 1020 hPa | 0 mm | - | 772 W/m² | - |
| 1777664720 | 8.33° C | 37% | 1019.9 hPa | 0 mm | - | 780 W/m² | - |
| 1777664597 | 8.33° C | 34% | 1020.1 hPa | 0 mm | - | 782 W/m² | - |
| 1777664237 | 7.78° C | 35% | 1020.1 hPa | 0 mm | - | 788 W/m² | - |
| 1777663876 | 7.78° C | 35% | 1020.1 hPa | 0 mm | - | 794 W/m² | - |
| 1777663516 | 8.33° C | 36% | 1020.1 hPa | 0 mm | - | 800 W/m² | - |
| 1777663156 | 7.78° C | 36% | 1020 hPa | 0 mm | - | 808 W/m² | - |
| 1777662796 | 7.78° C | 38% | 1020.1 hPa | 0 mm | - | 814 W/m² | - |
| 1777662436 | 7.78° C | 34% | 1020.2 hPa | 0 mm | - | 820 W/m² | - |
| 1777662319 | 7.78° C | 35% | 1020.1 hPa | 0 mm | - | 821 W/m² | - |
| 1777662076 | 7.78° C | 38% | 1020.2 hPa | 0 mm | - | 826 W/m² | - |
| 1777661716 | 7.78° C | 34% | 1020.2 hPa | 0 mm | - | 829 W/m² | - |
| 1777661356 | 8.33° C | 38% | 1020.1 hPa | 0 mm | - | 831 W/m² | - |
| 1777661118 | 7.78° C | 37% | 1020.1 hPa | 0 mm | - | 834 W/m² | - |
| 1777660996 | 7.78° C | 37% | 1020.1 hPa | 0 mm | - | 836 W/m² | - |
| 1777660635 | 7.78° C | 35% | 1020.1 hPa | 0 mm | - | 840 W/m² | - |
* Rain latest hour (hover to see other rain measurements)
** Current wind speed in m/s (hover to see current wind gust speed)